{"data":{"norad_id":25398,"epoch":"2026-09-19T16:40:32.483424Z","epoch_age_seconds":80767,"freshness":"FRESH","line1":"1 25398U 98043E   26262.69482041 -.00000018  00000+0  12817-4 0  9995","line2":"2 25398  99.0243 251.0248 0000705 350.7840   9.3324 14.23057716464389","mean_motion":14.23057716,"eccentricity":7.05e-5,"inclination_deg":99.0243,"raan_deg":251.0248,"arg_perigee_deg":350.784,"mean_anomaly_deg":9.3324,"bstar":1.2817e-5,"rev_number":46438,"period_min":101.19055494443,"perigee_km":814.52324313441,"apogee_km":815.53747973237,"semimajor_km":7193.1673614334,"source":"CELESTRAK","updated_at":"2026-09-20T09:00:13.527226Z"}}